This is the latest recevied weather packets stored in our database for station/object KD9JJA. If no packets are shown the sender has not sent any weather packets the latest 10 day(s).
| Time | Temp. | Humidity | Pressure | Rain* | Wind** | Luminosity | Snow |
|---|---|---|---|---|---|---|---|
| 1777748972 | 12.78° C | 48% | 1019.8 hPa | 0 mm | - | 200 W/m² | - |
| 1777748669 | 12.78° C | 43% | 1019.6 hPa | 0 mm | - | 204 W/m² | - |
| 1777748366 | 12.78° C | 47% | 1019.8 hPa | 0 mm | - | 223 W/m² | - |
| 1777748061 | 13.33° C | 43% | 1019.9 hPa | 0 mm | - | 223 W/m² | - |
| 1777747759 | 13.33° C | 47% | 1019.7 hPa | 0 mm | - | 61 W/m² | - |
| 1777747454 | 12.22° C | 44% | 1019.8 hPa | 0 mm | - | 148 W/m² | - |
| 1777747151 | 12.78° C | 46% | 1019.7 hPa | 0 mm | - | 67 W/m² | - |
| 1777746847 | 12.78° C | 48% | 1019.8 hPa | 0 mm | - | 202 W/m² | - |
| 1777746542 | 12.78° C | 52% | 1019.6 hPa | 0 mm | - | 156 W/m² | - |
| 1777746238 | 12.78° C | 44% | 1019.9 hPa | 0 mm | - | 265 W/m² | - |
| 1777745934 | 13.33° C | 53% | 1019.8 hPa | 0 mm | - | 703 W/m² | - |
| 1777745633 | 12.78° C | 50% | 1019.8 hPa | 0 mm | - | 618 W/m² | - |
| 1777745331 | 12.78° C | 54% | 1019.9 hPa | 0 mm | - | 757 W/m² | - |
| 1777745028 | 12.22° C | 57% | 1019.7 hPa | 0 mm | - | 740 W/m² | - |
| 1777744723 | 12.78° C | 52% | 1020.3 hPa | 0 mm | - | 713 W/m² | - |
| 1777744417 | 12.78° C | 43% | 1020.1 hPa | 0 mm | - | 237 W/m² | - |
| 1777744115 | 12.22° C | 47% | 1020 hPa | 0 mm | - | 108 W/m² | - |
| 1777743812 | 11.67° C | 50% | 1020.1 hPa | 0 mm | - | 91 W/m² | - |
| 1777743508 | 11.67° C | 52% | 1020.2 hPa | 0 mm | - | 83 W/m² | - |
| 1777743206 | 11.67° C | 55% | 1020.3 hPa | 0 mm | - | 84 W/m² | - |
| 1777742904 | 11.67° C | 58% | 1020.1 hPa | 0 mm | - | 163 W/m² | - |
| 1777742600 | 11.67° C | 59% | 1020.1 hPa | 0 mm | - | 115 W/m² | - |
| 1777742296 | 11.67° C | 60% | 1020.1 hPa | 0 mm | - | 114 W/m² | - |
| 1777741993 | 11.11° C | 60% | 1020.3 hPa | 0 mm | - | 101 W/m² | - |
| 1777741690 | 11.11° C | 55% | 1020.7 hPa | 0 mm | - | 95 W/m² | - |
* Rain latest hour (hover to see other rain measurements)
** Current wind speed in m/s (hover to see current wind gust speed)